Вернуться в каталог

CZ-3C R/B

АктивенHEO
NORAD 36288·ROCKET BODY·🇨🇳 China

Запущен Jan 16, 2010 с Xichang Satellite Launch Center

Loading…

Ближайшие Пролёты (ближайшие 24 часа)

TLE

СвежийSource: Space-Track

Эпоха: Sep 14, 2026, 02:08 UTC

1 36288U 10001B   26257.08950907  .00004849  00000-0  11339-2 0  9993
2 36288  19.9320 255.3325 6954375 243.5781  31.5582  2.70166424150616

Отслеживайте CZ-3C R/B в реальном времени с AllMySat

Download on the App Store